QPF
0.03 0.04 0.04 0.04 0.04 0.04 0.03 0.03 0.04 0.05 0.05 0.04 0.03 0.04 0.04 0.04 0.03 0.03 0.03 0.02 0.02 0.01 0.01 0.01 0.01 0.01 0.01 0.02 0.02 0.01 0.00 0.00 0.00 0.00 0.00 0.00 0.00 0.00 0.01 0.01 0.01 0.02 0.02
0.03 0.04 0.04 0.04 0.03 0.02 0.01 0.01 0.02 0.03 0.06 0.04 0.04 0.03 0.03 0.03 0.03 0.04 0.05 0.04 0.03 0.02 0.02 0.01 0.01 0.01 0.01 0.00 0.00 0.00 0.00 0.00 0.01 0.00 0.00 0.00 0.00 0.00 0.01 0.00 0.00 0.01 0.02
0.00 0.01 0.01 0.01 0.01 0.01 0.01 0.01 0.01 0.01 0.02 0.02 0.03 0.03 0.03 0.03 0.03 0.03 0.04 0.04 0.03 0.02 0.02 0.01 0.01 0.01 0.01 0.00 0.00 0.01 0.01 0.01 0.01 0.00 0.00 0.00 0.01 0.00 0.00 0.00 0.00 0.00 0.01
0.00 0.00 0.00 0.00 0.00 0.00 0.00 0.00 0.00 0.00 0.01 0.01 0.02 0.04 0.04 0.03 0.03 0.04 0.03 0.03 0.02 0.01 0.01 0.01 0.02 0.02 0.02 0.01 0.01 0.01 0.01 0.02 0.02 0.01 0.00 0.00 0.00 0.01 0.00 0.00 0.00 0.00 0.00
0.00 0.00 0.00 0.00 0.00 0.00 0.00 0.00 0.01 0.00 0.01 0.01 0.02 0.03 0.03 0.03 0.03 0.04 0.04 0.02 0.01 0.01 0.01 0.01 0.01 0.02 0.02 0.02 0.01 0.01 0.02 0.02 0.02 0.01 0.01 0.01 0.01 0.00 0.00 0.00 0.00 0.00 0.00
0.00 0.00 0.00 0.00 0.00 0.00 0.00 0.01 0.01 0.01 0.00 0.01 0.01 0.01 0.02 0.03 0.04 0.04 0.05 0.05 0.04 0.04 0.03 0.01 0.01 0.01 0.02 0.02 0.02 0.02 0.02 0.02 0.01 0.01 0.01 0.01 0.01 0.01 0.01 0.00 0.00 0.00 0.00
0.00 0.00 0.01 0.01 0.00 0.00 0.00 0.01 0.01 0.01 0.01 0.01 0.01 0.01 0.02 0.02 0.03 0.04 0.07 0.06 0.06 0.06 0.05 0.03 0.02 0.01 0.02 0.02 0.02 0.01 0.01 0.01 0.01 0.01 0.01 0.01 0.00 0.01 0.00 0.01 0.00 0.00 0.00
0.00 0.00 0.00 0.00 0.00 0.01 0.01 0.01 0.01 0.01 0.01 0.01 0.01 0.01 0.02 0.01 0.01 0.02 0.04 0.06 0.05 0.05 0.05 0.03 0.02 0.01 0.01 0.01 0.01 0.01 0.01 0.01 0.01 0.01 0.01 0.01 0.01 0.01 0.00 0.01 0.01 0.01 0.01
0.00 0.01 0.00 0.00 0.00 0.00 0.01 0.01 0.02 0.02 0.01 0.01 0.01 0.01 0.01 0.01 0.01 0.01 0.02 0.04 0.03 0.03 0.03 0.02 0.01 0.01 0.01 0.01 0.01 0.01 0.01 0.01 0.01 0.01 0.01 0.01 0.01 0.01 0.01 0.01 0.01 0.02 0.02
0.00 0.01 0.01 0.01 0.00 0.00 0.01 0.02 0.02 0.01 0.01 0.01 0.01 0.01 0.01 0.01 0.01 0.01 0.02 0.02 0.03 0.03 0.02 0.02 0.01 0.01 0.01 0.01 0.01 0.01 0.00 0.01 0.01 0.01 0.01 0.01 0.02 0.01 0.01 0.01 0.01 0.01 0.02
0.00 0.00 0.01 0.00 0.00 0.00 0.01 0.01 0.00 0.00 0.00 0.01 0.01 0.01 0.01 0.01 0.01 0.01 0.02 0.03 0.04 0.05 0.04 0.03 0.02 0.01 0.02 0.02 0.01 0.01 0.01 0.01 0.01 0.01 0.01 0.01 0.01 0.02 0.02 0.01 0.01 0.01 0.01
0.00 0.00 0.00 0.00 0.00 0.00 0.00 0.00 0.00 0.00 0.00 0.00 0.00 0.01 0.02 0.02 0.01 0.01 0.02 0.03 0.03 0.03 0.04 0.03 0.02 0.02 0.02 0.02 0.01 0.01 0.01 0.01 0.01 0.01 0.01 0.01 0.02 0.03 0.03 0.02 0.02 0.01 0.01
0.00 0.00 0.00 0.00 0.00 0.00 0.00 0.00 0.00 0.00 0.00 0.00 0.00 0.01 0.01 0.02 0.01 0.01 0.01 0.02 0.02 0.02 0.02 0.03 0.03 0.02 0.01 0.02 0.02 0.02 0.02 0.01 0.01 0.02 0.02 0.01 0.02 0.02 0.03 0.03 0.03 0.02 0.01
0.00 0.00 0.00 0.00 0.00 0.00 0.00 0.00 0.00 0.00 0.00 0.01 0.01 0.01 0.01 0.01 0.01 0.01 0.01 0.01 0.01 0.02 0.02 0.02 0.03 0.03 0.03 0.03 0.03 0.03 0.02 0.02 0.02 0.02 0.02 0.01 0.01 0.01 0.02 0.03 0.03 0.03 0.03
0.00 0.00 0.00 0.00 0.00 0.00 0.00 0.00 0.00 0.01 0.01 0.01 0.00 0.00 0.00 0.00 0.00 0.01 0.01 0.00 0.01 0.01 0.01 0.01 0.02 0.02 0.03 0.04 0.04 0.04 0.03 0.02 0.02 0.02 0.01 0.01 0.01 0.02 0.02 0.02 0.02 0.03 0.03
0.00 0.00 0.00 0.00 0.00 0.00 0.00 0.00 0.00 0.00 0.00 0.00 0.00 0.00 0.00 0.00 0.00 0.00 0.01 0.01 0.00 0.01 0.02 0.02 0.01 0.01 0.01 0.02 0.03 0.04 0.03 0.03 0.03 0.03 0.02 0.02 0.01 0.01 0.02 0.03 0.03 0.02 0.03
0.00 0.00 0.00 0.00 0.00 0.00 0.00 0.00 0.00 0.00 0.00 0.00 0.01 0.00 0.00 0.00 0.00 0.01 0.01 0.01 0.01 0.01 0.01 0.02 0.02 0.01 0.01 0.01 0.02 0.03 0.03 0.03 0.03 0.03 0.03 0.03 0.02 0.02 0.02 0.03 0.03 0.03 0.02
0.00 0.00 0.00 0.00 0.00 0.00 0.00 0.00 0.00 0.00 0.00 0.01 0.01 0.01 0.01 0.01 0.01 0.01 0.01 0.01 0.01 0.00 0.00 0.01 0.02 0.02 0.02 0.02 0.01 0.02 0.02 0.02 0.03 0.04 0.03 0.03 0.02 0.02 0.02 0.02 0.03 0.03 0.02
0.00 0.00 0.00 0.00 0.00 0.00 0.00 0.00 0.00 0.00 0.00 0.00 0.00 0.01 0.01 0.01 0.01 0.01 0.01 0.01 0.00 0.00 0.00 0.00 0.01 0.01 0.02 0.02 0.01 0.01 0.01 0.01 0.02 0.03 0.04 0.03 0.02 0.02 0.02 0.02 0.02 0.02 0.02
0.00 0.00 0.00 0.00 0.00 0.00 0.00 0.00 0.00 0.00 0.00 0.00 0.01 0.00 0.01 0.01 0.01 0.01 0.01 0.01 0.01 0.00 0.00 0.00 0.00 0.00 0.01 0.02 0.03 0.02 0.01 0.01 0.01 0.01 0.02 0.02 0.02 0.03 0.03 0.02 0.01 0.02 0.03
0.01 0.00 0.00 0.00 0.00 0.00 0.00 0.00 0.00 0.00 0.00 0.00 0.01 0.01 0.01 0.01 0.01 0.01 0.01 0.01 0.01 0.01 0.01 0.01 0.01 0.00 0.01 0.02 0.02 0.02 0.01 0.01 0.01 0.01 0.01 0.01 0.02 0.02 0.03 0.02 0.02 0.02 0.03
0.01 0.01 0.01 0.01 0.00 0.00 0.00 0.00 0.00 0.00 0.01 0.01 0.00 0.00 0.00 0.01 0.01 0.01 0.01 0.01 0.01 0.01 0.01 0.01 0.01 0.01 0.01 0.02 0.02 0.02 0.02 0.01 0.01 0.01 0.01 0.01 0.02 0.02 0.02 0.02 0.02 0.02 0.03
0.02 0.01 0.01 0.00 0.00 0.00 0.00 0.00 0.00 0.00 0.01 0.01 0.00 0.00 0.00 0.01 0.00 0.01 0.01 0.01 0.01 0.01 0.01 0.01 0.01 0.01 0.01 0.01 0.02 0.02 0.02 0.01 0.01 0.01 0.01 0.01 0.01 0.01 0.01 0.02 0.02 0.02 0.02
0.01 0.01 0.00 0.00 0.00 0.00 0.00 0.01 0.01 0.01 0.01 0.00 0.00 0.00 0.00 0.00 0.00 0.01 0.01 0.01 0.01 0.01 0.01 0.01 0.01 0.01 0.02 0.02 0.02 0.02 0.02 0.02 0.01 0.01 0.01 0.01 0.01 0.01 0.01 0.01 0.01 0.01 0.02
0.00 0.00 0.00 0.00 0.00 0.00 0.01 0.01 0.01 0.01 0.01 0.01 0.01 0.01 0.01 0.01 0.01 0.01 0.01 0.01 0.01 0.01 0.01 0.01 0.01 0.01 0.02 0.03 0.04 0.03 0.03 0.03 0.02 0.02 0.01 0.01 0.01 0.01 0.01 0.01 0.02 0.02 0.02
0.00 0.00 0.00 0.00 0.00 0.01 0.00 0.00 0.01 0.01 0.01 0.01 0.02 0.01 0.01 0.01 0.01 0.01 0.01 0.02 0.02 0.02 0.02 0.02 0.02 0.02 0.03 0.04 0.05 0.04 0.03 0.03 0.02 0.02 0.01 0.01 0.01 0.01 0.01 0.01 0.01 0.02 0.02
MSLP
1012.83 1013.07 1013.30 1013.51 1013.70 1013.89 1014.09 1014.33 1014.61 1014.93 1015.29 1015.65 1015.99 1016.29 1016.54 1016.74 1016.90 1017.05 1017.21 1017.41 1017.65 1017.92 1018.23 1018.54 1018.82 1019.06 1019.24 1019.35 1019.41 1019.43 1019.45 1019.47 1019.52 1019.61 1019.73 1019.86 1019.98 1020.07 1020.11 1020.07 1019.96 1019.77 1019.53
1012.10 1012.42 1012.74 1013.03 1013.29 1013.54 1013.80 1014.09 1014.43 1014.81 1015.22 1015.65 1016.05 1016.40 1016.67 1016.88 1017.03 1017.14 1017.26 1017.40 1017.59 1017.84 1018.13 1018.44 1018.74 1019.01 1019.22 1019.37 1019.44 1019.47 1019.48 1019.50 1019.54 1019.63 1019.77 1019.94 1020.13 1020.31 1020.45 1020.55 1020.57 1020.53 1020.42
1011.24 1011.65 1012.06 1012.45 1012.80 1013.12 1013.44 1013.79 1014.18 1014.61 1015.09 1015.57 1016.02 1016.41 1016.72 1016.94 1017.08 1017.17 1017.25 1017.34 1017.49 1017.70 1017.97 1018.27 1018.59 1018.88 1019.11 1019.28 1019.37 1019.41 1019.42 1019.42 1019.46 1019.54 1019.68 1019.88 1020.11 1020.36 1020.60 1020.81 1020.96 1021.05 1021.08
1010.30 1010.79 1011.30 1011.78 1012.22 1012.62 1013.00 1013.39 1013.82 1014.30 1014.81 1015.34 1015.84 1016.28 1016.62 1016.87 1017.01 1017.10 1017.15 1017.22 1017.33 1017.51 1017.76 1018.06 1018.38 1018.68 1018.94 1019.13 1019.24 1019.29 1019.30 1019.30 1019.33 1019.41 1019.55 1019.75 1020.01 1020.29 1020.60 1020.88 1021.13 1021.34 1021.49
1009.35 1009.92 1010.51 1011.08 1011.59 1012.05 1012.47 1012.90 1013.36 1013.86 1014.40 1014.96 1015.49 1015.97 1016.36 1016.63 1016.80 1016.90 1016.95 1017.01 1017.11 1017.27 1017.51 1017.81 1018.13 1018.45 1018.73 1018.94 1019.08 1019.16 1019.19 1019.20 1019.23 1019.30 1019.43 1019.63 1019.88 1020.18 1020.51 1020.84 1021.15 1021.43 1021.67
1008.47 1009.09 1009.74 1010.37 1010.94 1011.43 1011.89 1012.33 1012.79 1013.30 1013.85 1014.42 1014.99 1015.50 1015.93 1016.25 1016.45 1016.58 1016.65 1016.72 1016.82 1016.98 1017.21 1017.51 1017.84 1018.18 1018.49 1018.73 1018.92 1019.03 1019.09 1019.13 1019.17 1019.25 1019.37 1019.56 1019.80 1020.09 1020.41 1020.74 1021.07 1021.38 1021.68
1007.70 1008.34 1009.03 1009.69 1010.28 1010.80 1011.26 1011.70 1012.16 1012.66 1013.21 1013.80 1014.38 1014.92 1015.39 1015.75 1016.00 1016.17 1016.27 1016.36 1016.47 1016.64 1016.87 1017.17 1017.51 1017.87 1018.21 1018.49 1018.72 1018.89 1019.00 1019.08 1019.16 1019.26 1019.39 1019.57 1019.79 1020.05 1020.33 1020.64 1020.96 1021.28 1021.59
1007.05 1007.69 1008.38 1009.04 1009.64 1010.16 1010.62 1011.05 1011.50 1012.00 1012.54 1013.13 1013.73 1014.30 1014.80 1015.20 1015.50 1015.70 1015.84 1015.96 1016.08 1016.26 1016.49 1016.79 1017.14 1017.51 1017.88 1018.20 1018.48 1018.71 1018.88 1019.02 1019.15 1019.29 1019.44 1019.62 1019.82 1020.06 1020.31 1020.58 1020.86 1021.15 1021.45
1006.50 1007.10 1007.77 1008.41 1009.00 1009.50 1009.96 1010.39 1010.84 1011.33 1011.88 1012.48 1013.10 1013.69 1014.22 1014.66 1015.00 1015.24 1015.41 1015.54 1015.68 1015.86 1016.09 1016.39 1016.74 1017.11 1017.49 1017.85 1018.18 1018.46 1018.70 1018.90 1019.09 1019.28 1019.47 1019.67 1019.87 1020.09 1020.31 1020.54 1020.78 1021.04 1021.32
1005.99 1006.54 1007.16 1007.76 1008.32 1008.82 1009.27 1009.71 1010.17 1010.68 1011.25 1011.87 1012.51 1013.12 1013.68 1014.15 1014.52 1014.79 1014.99 1015.15 1015.30 1015.48 1015.71 1015.99 1016.33 1016.69 1017.08 1017.45 1017.80 1018.13 1018.42 1018.69 1018.95 1019.19 1019.42 1019.66 1019.88 1020.10 1020.31 1020.51 1020.72 1020.94 1021.19
1005.48 1005.96 1006.51 1007.07 1007.59 1008.08 1008.53 1008.99 1009.48 1010.02 1010.63 1011.28 1011.95 1012.59 1013.18 1013.68 1014.08 1014.38 1014.61 1014.79 1014.95 1015.14 1015.36 1015.63 1015.95 1016.30 1016.66 1017.04 1017.40 1017.74 1018.07 1018.38 1018.69 1018.98 1019.27 1019.54 1019.80 1020.04 1020.25 1020.45 1020.65 1020.85 1021.08
1004.97 1005.36 1005.83 1006.32 1006.80 1007.26 1007.72 1008.21 1008.74 1009.33 1009.98 1010.67 1011.37 1012.05 1012.67 1013.20 1013.64 1013.98 1014.24 1014.45 1014.65 1014.85 1015.08 1015.34 1015.64 1015.97 1016.31 1016.65 1017.00 1017.34 1017.68 1018.01 1018.34 1018.68 1019.00 1019.32 1019.61 1019.88 1020.12 1020.34 1020.54 1020.74 1020.96
1004.46 1004.75 1005.12 1005.52 1005.95 1006.38 1006.85 1007.35 1007.92 1008.56 1009.25 1009.98 1010.72 1011.44 1012.09 1012.66 1013.14 1013.53 1013.85 1014.11 1014.36 1014.60 1014.86 1015.13 1015.43 1015.73 1016.05 1016.36 1016.67 1016.98 1017.30 1017.62 1017.96 1018.31 1018.66 1019.01 1019.34 1019.64 1019.91 1020.16 1020.38 1020.60 1020.82
1004.02 1004.19 1004.44 1004.74 1005.08 1005.47 1005.91 1006.42 1007.02 1007.68 1008.41 1009.18 1009.95 1010.69 1011.39 1012.00 1012.53 1012.99 1013.38 1013.73 1014.06 1014.37 1014.68 1014.99 1015.30 1015.60 1015.89 1016.17 1016.43 1016.70 1016.98 1017.27 1017.59 1017.93 1018.29 1018.65 1019.01 1019.34 1019.65 1019.92 1020.17 1020.41 1020.64
1003.70 1003.73 1003.84 1004.01 1004.25 1004.56 1004.96 1005.45 1006.04 1006.72 1007.46 1008.24 1009.03 1009.80 1010.53 1011.19 1011.79 1012.33 1012.81 1013.26 1013.69 1014.10 1014.50 1014.87 1015.22 1015.53 1015.81 1016.06 1016.29 1016.50 1016.73 1016.98 1017.27 1017.58 1017.93 1018.30 1018.67 1019.02 1019.35 1019.65 1019.92 1020.18 1020.43
1003.53 1003.41 1003.36 1003.38 1003.50 1003.71 1004.04 1004.48 1005.04 1005.69 1006.42 1007.19 1007.99 1008.77 1009.52 1010.23 1010.89 1011.52 1012.11 1012.68 1013.22 1013.75 1014.24 1014.70 1015.10 1015.45 1015.74 1015.97 1016.17 1016.35 1016.54 1016.75 1017.00 1017.29 1017.62 1017.98 1018.35 1018.71 1019.05 1019.37 1019.66 1019.92 1020.18
1003.52 1003.23 1003.02 1002.89 1002.86 1002.96 1003.19 1003.56 1004.06 1004.66 1005.36 1006.10 1006.88 1007.66 1008.42 1009.17 1009.89 1010.59 1011.28 1011.96 1012.62 1013.26 1013.86 1014.40 1014.87 1015.26 1015.58 1015.82 1016.01 1016.18 1016.34 1016.53 1016.75 1017.02 1017.34 1017.69 1018.06 1018.42 1018.77 1019.09 1019.39 1019.65 1019.91
1003.60 1003.16 1002.80 1002.52 1002.36 1002.33 1002.46 1002.74 1003.16 1003.71 1004.34 1005.05 1005.79 1006.55 1007.31 1008.07 1008.84 1009.60 1010.36 1011.12 1011.87 1012.60 1013.28 1013.90 1014.43 1014.87 1015.23 1015.50 1015.71 1015.89 1016.05 1016.24 1016.47 1016.74 1017.06 1017.41 1017.78 1018.15 1018.50 1018.82 1019.11 1019.37 1019.61
1003.69 1003.13 1002.63 1002.23 1001.95 1001.82 1001.85 1002.04 1002.39 1002.86 1003.44 1004.09 1004.79 1005.52 1006.26 1007.03 1007.80 1008.59 1009.38 1010.19 1010.99 1011.77 1012.50 1013.16 1013.74 1014.23 1014.62 1014.93 1015.18 1015.40 1015.61 1015.83 1016.09 1016.39 1016.73 1017.10 1017.48 1017.85 1018.20 1018.52 1018.80 1019.05 1019.28
1003.72 1003.06 1002.47 1001.97 1001.60 1001.39 1001.34 1001.47 1001.75 1002.16 1002.68 1003.27 1003.93 1004.62 1005.33 1006.07 1006.83 1007.60 1008.40 1009.20 1010.00 1010.78 1011.52 1012.20 1012.80 1013.31 1013.75 1014.10 1014.41 1014.69 1014.96 1015.25 1015.57 1015.92 1016.30 1016.70 1017.10 1017.49 1017.84 1018.15 1018.42 1018.66 1018.87
1003.62 1002.91 1002.26 1001.70 1001.28 1001.01 1000.91 1000.98 1001.21 1001.57 1002.04 1002.58 1003.19 1003.84 1004.51 1005.21 1005.93 1006.67 1007.42 1008.19 1008.95 1009.69 1010.40 1011.06 1011.65 1012.18 1012.64 1013.05 1013.42 1013.77 1014.12 1014.49 1014.89 1015.31 1015.74 1016.18 1016.61 1017.00 1017.36 1017.67 1017.93 1018.16 1018.36
1003.39 1002.66 1001.98 1001.40 1000.95 1000.65 1000.51 1000.54 1000.73 1001.04 1001.46 1001.97 1002.53 1003.14 1003.77 1004.42 1005.09 1005.77 1006.46 1007.16 1007.85 1008.53 1009.19 1009.80 1010.38 1010.90 1011.39 1011.84 1012.28 1012.71 1013.14 1013.60 1014.07 1014.55 1015.04 1015.52 1015.97 1016.37 1016.73 1017.03 1017.29 1017.51 1017.70
1003.06 1002.34 1001.67 1001.08 1000.61 1000.29 1000.12 1000.11 1000.25 1000.52 1000.89 1001.36 1001.88 1002.44 1003.03 1003.64 1004.25 1004.87 1005.50 1006.12 1006.74 1007.35 1007.95 1008.52 1009.07 1009.59 1010.10 1010.59 1011.09 1011.59 1012.10 1012.62 1013.16 1013.69 1014.21 1014.71 1015.17 1015.57 1015.92 1016.22 1016.46 1016.67 1016.86
1002.73 1002.02 1001.36 1000.77 1000.28 999.92 999.71 999.64 999.73 999.94 1000.26 1000.67 1001.15 1001.67 1002.22 1002.78 1003.35 1003.93 1004.50 1005.06 1005.63 1006.18 1006.73 1007.26 1007.80 1008.32 1008.85 1009.38 1009.93 1010.48 1011.05 1011.62 1012.20 1012.76 1013.29 1013.78 1014.22 1014.61 1014.94 1015.21 1015.45 1015.65 1015.84
1002.47 1001.78 1001.12 1000.51 999.98 999.57 999.29 999.15 999.16 999.29 999.54 999.89 1000.31 1000.78 1001.29 1001.82 1002.36 1002.90 1003.44 1003.97 1004.50 1005.02 1005.55 1006.08 1006.61 1007.15 1007.70 1008.27 1008.85 1009.44 1010.04 1010.63 1011.21 1011.76 1012.27 1012.74 1013.14 1013.49 1013.78 1014.03 1014.25 1014.45 1014.64
1002.35 1001.67 1001.00 1000.35 999.77 999.28 998.91 998.67 998.57 998.60 998.76 999.02 999.37 999.79 1000.26 1000.75 1001.27 1001.79 1002.32 1002.84 1003.36 1003.88 1004.41 1004.95 1005.50 1006.07 1006.65 1007.25 1007.85 1008.46 1009.06 1009.64 1010.20 1010.71 1011.17 1011.58 1011.94 1012.24 1012.49 1012.71 1012.91 1013.10 1013.30
Thickness
5725 5724 5722 5721 5721 5720 5719 5718 5715 5714 5712 5709 5707 5705 5704 5703 5702 5701 5699 5697 5697 5695 5694 5693 5692 5690 5689 5688 5687 5686 5685 5684 5685 5684 5682 5682 5682 5681 5679 5679 5680 5679 5678
5723 5721 5720 5719 5718 5716 5715 5715 5714 5712 5710 5707 5706 5704 5703 5701 5700 5697 5696 5695 5694 5692 5691 5690 5688 5686 5685 5684 5684 5682 5682 5681 5681 5682 5680 5677 5676 5675 5676 5675 5674 5675 5673
5722 5721 5719 5717 5716 5714 5713 5712 5711 5710 5707 5705 5703 5701 5699 5697 5696 5694 5693 5692 5691 5689 5688 5687 5685 5684 5683 5682 5680 5680 5678 5678 5678 5679 5679 5676 5673 5672 5671 5671 5670 5669 5668
5722 5720 5718 5716 5714 5713 5712 5711 5710 5709 5706 5703 5700 5698 5696 5694 5694 5693 5691 5690 5688 5686 5685 5684 5683 5682 5681 5679 5679 5678 5678 5676 5675 5675 5674 5675 5674 5670 5666 5666 5666 5665 5664
5722 5720 5717 5715 5714 5712 5710 5708 5707 5706 5703 5701 5698 5696 5695 5694 5693 5691 5689 5688 5686 5684 5682 5681 5681 5679 5678 5677 5676 5675 5675 5674 5673 5672 5671 5669 5668 5670 5667 5662 5661 5660 5660
5723 5720 5718 5715 5712 5711 5707 5705 5704 5701 5699 5697 5696 5694 5692 5690 5688 5686 5685 5684 5683 5682 5680 5679 5678 5677 5676 5674 5673 5673 5671 5671 5670 5669 5669 5667 5665 5664 5663 5661 5658 5657 5656
5722 5719 5715 5712 5709 5707 5705 5703 5700 5698 5696 5695 5693 5692 5689 5687 5685 5684 5682 5681 5680 5679 5678 5677 5676 5675 5673 5672 5670 5669 5668 5667 5666 5665 5665 5664 5663 5663 5661 5659 5657 5654 5654
5721 5718 5714 5711 5708 5705 5703 5701 5698 5696 5693 5691 5690 5689 5687 5684 5683 5681 5680 5679 5678 5677 5676 5674 5673 5671 5670 5668 5667 5666 5665 5664 5663 5662 5660 5660 5659 5658 5657 5656 5653 5650 5650
5719 5716 5713 5710 5707 5703 5701 5699 5696 5693 5691 5689 5687 5685 5683 5681 5679 5678 5677 5675 5674 5673 5671 5670 5669 5668 5666 5665 5663 5662 5661 5660 5659 5658 5657 5656 5655 5654 5653 5652 5651 5648 5645
5717 5714 5711 5708 5705 5702 5700 5697 5694 5691 5689 5686 5684 5681 5679 5677 5675 5673 5671 5670 5670 5668 5666 5665 5664 5664 5662 5661 5659 5658 5657 5656 5654 5653 5652 5651 5651 5650 5648 5647 5646 5646 5644
5714 5712 5708 5705 5702 5700 5696 5693 5690 5687 5685 5682 5680 5677 5675 5672 5671 5668 5667 5665 5664 5663 5662 5661 5660 5659 5658 5657 5654 5653 5652 5652 5651 5650 5649 5647 5646 5645 5644 5642 5641 5640 5639
5711 5708 5705 5701 5698 5695 5693 5689 5687 5684 5680 5678 5675 5673 5671 5668 5666 5664 5662 5661 5660 5658 5657 5657 5656 5654 5653 5652 5650 5648 5647 5647 5646 5645 5644 5643 5641 5640 5640 5638 5637 5636 5635
5706 5704 5700 5697 5694 5691 5688 5685 5682 5679 5676 5673 5670 5668 5666 5664 5662 5660 5658 5657 5655 5654 5652 5652 5651 5649 5648 5647 5646 5644 5643 5642 5642 5641 5640 5639 5637 5636 5635 5633 5633 5631 5630
5701 5698 5695 5693 5690 5688 5685 5681 5678 5675 5671 5668 5665 5663 5661 5659 5657 5655 5653 5652 5650 5649 5648 5647 5646 5644 5643 5642 5641 5640 5639 5638 5637 5636 5635 5634 5633 5632 5630 5628 5627 5626 5624
5695 5693 5690 5689 5686 5683 5680 5676 5673 5670 5667 5663 5660 5658 5657 5654 5652 5650 5647 5646 5644 5643 5642 5641 5640 5639 5638 5637 5635 5635 5634 5633 5632 5631 5630 5628 5626 5624 5623 5622 5621 5620 5618
5690 5688 5686 5684 5681 5679 5676 5672 5669 5666 5662 5658 5655 5653 5650 5648 5645 5644 5642 5640 5638 5637 5636 5635 5634 5633 5632 5628 5626 5626 5627 5628 5627 5625 5624 5623 5620 5617 5615 5614 5613 5613 5613
5685 5683 5682 5679 5677 5675 5672 5667 5665 5661 5657 5653 5650 5647 5644 5641 5639 5637 5635 5633 5632 5631 5629 5628 5627 5626 5625 5622 5620 5618 5620 5621 5621 5620 5619 5618 5616 5613 5613 5609 5606 5605 5605
5680 5678 5677 5674 5672 5670 5666 5663 5659 5655 5651 5647 5644 5641 5638 5635 5633 5631 5629 5627 5627 5625 5623 5622 5621 5620 5619 5615 5614 5612 5613 5614 5614 5614 5613 5612 5611 5609 5608 5607 5605 5604 5602
5674 5672 5671 5669 5666 5663 5660 5656 5652 5648 5644 5641 5638 5635 5632 5629 5627 5624 5623 5621 5620 5619 5617 5616 5615 5613 5612 5609 5607 5605 5607 5608 5608 5607 5606 5605 5604 5602 5599 5599 5600 5599 5598
5666 5664 5663 5660 5657 5655 5652 5648 5645 5641 5637 5634 5631 5629 5625 5622 5620 5618 5616 5614 5613 5611 5610 5609 5609 5608 5607 5604 5601 5598 5601 5602 5601 5600 5600 5596 5595 5594 5591 5591 5592 5592 5592
5657 5655 5653 5650 5648 5646 5643 5639 5637 5634 5630 5627 5624 5621 5619 5616 5614 5611 5609 5607 5605 5604 5603 5602 5601 5601 5600 5598 5594 5592 5594 5595 5595 5594 5593 5592 5588 5585 5584 5584 5586 5586 5584
5647 5645 5643 5641 5638 5637 5634 5631 5627 5626 5623 5619 5616 5613 5611 5609 5606 5603 5601 5600 5598 5597 5596 5595 5594 5594 5593 5590 5588 5586 5585 5585 5587 5587 5587 5585 5581 5578 5577 5577 5577 5575 5574
5638 5636 5634 5631 5629 5626 5624 5621 5619 5616 5613 5611 5608 5606 5604 5601 5599 5596 5594 5592 5591 5590 5589 5588 5587 5586 5586 5584 5580 5578 5577 5576 5577 5579 5577 5576 5573 5571 5571 5570 5568 5567 5567
5629 5627 5624 5621 5619 5616 5614 5612 5609 5607 5605 5602 5600 5599 5596 5594 5591 5588 5587 5585 5584 5583 5582 5581 5580 5579 5578 5576 5575 5573 5571 5569 5568 5568 5568 5566 5565 5563 5563 5563 5562 5561 5561
5620 5617 5615 5612 5609 5607 5604 5602 5599 5598 5596 5594 5591 5589 5587 5584 5582 5580 5578 5577 5576 5574 5572 5572 5571 5570 5570 5568 5564 5563 5563 5563 5562 5560 5560 5560 5560 5559 5558 5557 5556 5555 5554
5610 5607 5605 5602 5601 5598 5595 5592 5590 5588 5587 5585 5583 5580 5577 5575 5572 5571 5568 5565 5564 5562 5561 5559 5559 5560 5559 5557 5555 5553 5552 5551 5549 5549 5552 5552 5552 5552 5551 5550 5548 5547 5546